星链-6031 (STARLINK-6031 )

导读 | 星芒AI

STARLINK-6031 是 SpaceX Starlink 项目中的一颗低轨通信卫星,属于第 60 批发射的星链卫星群。该卫星于 2023 年发射,运行在约 550 公里的近地轨道,旨在为全球用户提供高速互联网服务。Starlink 卫星采用先进推进系统和激光通信技术,具备自主避障能力,以减少与空间碎片和他国卫星的碰撞风险。该项目致力于构建全球覆盖的宽带网络,尤其服务于偏远和网络基础设施薄弱的地区。

基本信息
目录编号:
56810
目录名称:
STARLINK-6031
国际标识:
2023-078AV
轨道中心:
EARTH
卫星名称:
星链-6031
卫星全名:
星链-6031 (STARLINK-6031 )
卫星状态:
在轨 (已飞行888 天)
发射日期:
2023-05-31 UTC
国别 :
美国 (US)
星等 :
--
轨道信息
数据来源 国际轨道数据
星历时间: 2025-11-04T01:28:23+0800
12小时前
查看轨道信息
半长轴: 6950.194km
偏心率: 0.0003334
轨道倾角: 69.997°
近地点辐角 267.357°
升交点赤经 301.997°
平近点角 92.721°
近地点: 569.741km
远地点: 574.377km
周期: 96.107分钟
每日圈数: 14.983297
详细信息
固有亮度:
5
最大亮度:
2.5
卫星平台:
Starlink v1.5
覆盖范围:
全球
运营商:
太空探索技术公司
运营商所在国:
美国
制造商(研发单位):
太空探索技术公司
制造商所在国:
美国
使用方式:
暂无
卫星简介
星链(Starlink)计划是由太空探索技术公司(SpaceX)提出的一个巨型低轨卫星互联网星座项目,计划在2019年至2024年间在太空搭建由约1.2万颗卫星组成的“星链”网络,其中1584颗将部署在地球上空550千米处的近地轨道,并从2020年开始工作。该卫星仍在工作。
2D轨道图
3D轨道图
轨道高度分析图
轨道倾角分析图
轨道综合分析图
查看轨道综合分析图